Racecast

Kenneth Totengco

Tri County (MI) · 12 · CSAAMI D2 · Compare head to head

Athlete rating 107.9 2019 TF season
Best race 114.4 TF
Races 83
Seasons 5 2015 — 2019

RankedNation #73617·MI #3089·MI D2 #1073·CSAA #33·Team #27 ?

Rating scale ?
Speed rating — all races

Cross Country

XC speed rating

2018 XC 103.8

Tri County (MI) · Grade 12

Date Meet Event Result Place Rating Difficulty PR/SR Flags
2018-10-27 Michaywe Pines Golf 5000m 19:48.7 96th · 7th on team 102.4 -0.020 ★PR ★CR SR CSR
2018-10-19 Long Lake Park 5000m 20:03.4 22nd · 8th on team 107.2 +0.029 ★CR CSR
2018-10-16 Grant Home course 5000m 19:59.9 50th · 6th on team 107.4 +0.036 ★CR CSR RSR
2018-10-12 Montabella HS 5000m 19:55.1 42nd · 7th on team 103.9 +0.001 PR ★CR SR CSR
2018-10-06 Allegan 5000m 20:15.8 63rd · 5th on team 102.5 +0.001 ★CR CSR
2018-10-02 Branstrom Park 5000m 21:36.3 40th · 7th on team 105.5 +0.117 ★CR CSR
2018-09-22 Springhill Camps 5000m 20:05.1 28th · 6th on team 106.8 +0.037 PR ★CR SR CSR RSR
2018-09-18 Chippewa Hills HS 5000m 20:06.7 40th · 7th on team 105.6 +0.021 PR ★CR SR CSR RSR
2018-09-15 Sparta HS 5000m 20:51.7 57th · 7th on team 101.8 +0.010 CSR
2018-09-14 Forest Akers East Golf Course 5000m 20:51.1 252nd · 7th on team 101.4 +0.019 ★CR SR CSR
2018-09-04 Central Montcalm HS 5000m 21:16.9 37th · 5th on team 101.0 +0.018 CSR
2018-08-21 Long Lake Park 5000m 21:00.2 57th · 6th on team 100.6 +0.029 SR CSR
2018-08-18 Tri County High School 5000m 21:03 11th · 7th on team 103.0 +0.030 ★CR SR CSR RSR

2017 XC 94.9

Tri County (MI) · Grade 11

Date Meet Event Result Place Rating Difficulty PR/SR Flags
2017-10-17 White Cloud HS 5000m 22:18.7 90th · 11th on team 97.6 +0.058 ★CR CSR
2017-10-13 Montabella HS 5000m 21:50.5 141st · 11th on team 94.2 +0.001 CR CSR
2017-10-07 Portage West MS 5000m 23:03.9 292nd · 4th on team 90.2 -0.003 ★CR CSR
2017-10-03 Branstrom Park 5000m 23:58.9 59th · 10th on team 96.6 +0.117 CR CSR
2017-09-23 Springhill Camps 5000m 22:31 56th · 10th on team 96.1 +0.037 CSR
2017-09-19 Tri County High School 5000m 21:24.3 60th · 11th on team 99.2 +0.030 CR SR CSR RSR
2017-09-16 Sparta HS 5000m 22:10.4 78th · 3rd on team 95.0 +0.010 CSR
2017-09-09 Fremont MS 5000m 24:02.8 41st · 3rd on team 89.5 +0.041 CSR
2017-09-05 Chippewa Hills HS 5000m 21:51.9 60th · 11th on team 95.8 +0.021 CR SR CSR RSR
2017-08-22 Long Lake Park 5000m 22:29.4 53rd · 4th on team 94.4 +0.029 SR CSR RSR

2016 XC 98.5

Tri County (MI) · Grade 10

Date Meet Event Result Place Rating Difficulty PR/SR Flags
2016-10-08 Allegan County Fairgrounds 5000m 21:02.1 45th · 6th on team 98.2 -0.000 ★CR CSR
2016-10-04 Village Green Golf Course 5000m 21:29.2 61st · 13th on team 98.6 +0.028 ★CR CSR
2016-09-24 Springhill Camps 5000m 20:24.2 34th · 9th on team 103.8 +0.037 PR CR SR CSR RSR
2016-09-17 Sparta HS 5000m 20:48 58th · 7th on team 100.6 +0.010 ★CR SR CSR RSR
2016-09-10 Central Montcalm HS 5000m 20:54.3 20th · 3rd on team 99.7 +0.018 SR CSR RSR
2016-08-23 Long Lake Park 5000m 21:54.2 35th · 7th on team 98.2 +0.029 SR CSR RSR
2016-08-19 Tri County High School 5000m 23:15.8 24th · 9th on team 90.8 +0.030 SR CSR RSR

2015 XC 98.4

Tri County (MI) · Grade 9

Date Meet Event Result Place Rating Difficulty PR/SR Flags
2015-10-23 Long Lake Park 5000m 20:53 25th · 9th on team 101.4 +0.029 CR CSR
2015-10-20 Lakeview HS (Lakeview) 5000m 20:48.3 68th · 9th on team 103.7 +0.049 ★CR CSR RSR
2015-10-06 Central Montcalm HS 5000m 20:47.8 36th · 8th on team 100.1 +0.018 ★CR CSR RSR
2015-10-03 Fish Creek Sportsman's Club 5000m 20:28.7 65th · 2nd on team 99.5 -0.008 PR ★CR SR CSR
2015-09-22 Big Rapids High School 5000m 22:35.6 39th · 9th on team 96.0 +0.055 ★CR CSR
2015-09-12 Fremont MS 5000m 21:20.2 33rd · 1st on team 99.5 +0.041 PR ★CR SR CSR RSR
2015-09-08 Tri County High School 5000m 23:10.6 36th · 8th on team 91.7 +0.030 CR CSR
2015-08-25 Long Lake Park 5000m 22:00 34th · 8th on team 94.9 +0.029 PR CR SR CSR RSR

Track & Field

TF speed rating

2019 TF 103.7

Tri County (MI) · Grade 12

Date Meet Event Result Place Rating Difficulty PR/SR Flags
2019-05-06 CSAA-Gold Conference Meet 200m 26.05 21st · 4th on team -0.023 SR
2019-04-30 CSAA Meet - Chip Hills, Tri County, Newaygo, Big Rapids 800m 2:38.78 15th · 6th on team 97.2 -0.025
2019-04-30 CSAA Meet - Chip Hills, Tri County, Newaygo, Big Rapids 200m 28.36 15th · 5th on team -0.025
2019-04-30 CSAA Meet - Chip Hills, Tri County, Newaygo, Big Rapids 400m 58.55 4th · 1st on team -0.025 ★PR SR
2019-04-27 Cougar Invite 800m 2:21.38 19th · 3rd on team 108.8 -0.026 ★PR SR RSR
2019-04-23 CSAA Grant, Central Montcalm, Newaygo and Tri County 200m 26.84 11th · 4th on team -0.017 SR
2019-04-23 CSAA Grant, Central Montcalm, Newaygo and Tri County 800m 2:36 10th · 6th on team 99.8 -0.017
2019-04-12 Fowler Invite 800m 2:27.01 15th · 2nd on team 105.9 -0.022
2019-04-12 Fowler Invite 400m 58.87 9th · 1st on team -0.022 PR SR
2019-04-09 CSAA Fremont, Reed City, Newaygo and Tri County 200m 27.35 15th · 7th on team -0.017 SR
2019-04-09 CSAA Fremont, Reed City, Newaygo and Tri County 800m 2:26.11 3rd · 1st on team 106.7 -0.017 PR SR RSR
2019-03-20 CMU Chippewa HS Invitational 400m 1:00.57 15th · 3rd on team -0.033 SR

2018 TF 98.1

Tri County (MI) · Grade 11

Date Meet Event Result Place Rating Difficulty PR/SR Flags
2018-05-18 MHSAA LP Region 17-2 @ GR Houseman Field 200m 26.36 30th · 2nd on team -0.041
2018-05-14 CSAA Gold Conference Meet at Grant 200m 26.77 22nd · 4th on team -0.014
2018-05-01 CSAA Gold - Tri County, Newaygo, Grant at Central Montcalm 200m 26.62 19th · 4th on team -0.029
2018-04-26 CSAA Newaygo vs RC/TC/Fremont 400m 1:00.21 9th · 6th on team -0.023
2018-04-26 CSAA Newaygo vs RC/TC/Fremont 200m 26.59 9th · 3rd on team -0.023
2018-04-24 CSAA Gold - Big Rapids, Chippewa Hills, Howard City Tri-County, Newaygo 200m 25.84 6th · 2nd on team -0.017 ★PR SR
2018-04-24 CSAA Gold - Big Rapids, Chippewa Hills, Howard City Tri-County, Newaygo 800m 2:39.1 12th · 5th on team 97.0 -0.017
2018-04-24 CSAA Gold - Big Rapids, Chippewa Hills, Howard City Tri-County, Newaygo 400m 59.34 5th · 2nd on team -0.017 PR SR
2018-03-21 CMU Chippewa Invitational 800m 2:35.57 9th · 2nd on team 99.2 -0.033 SR RSR

2017 TF 98.8

Tri County (MI) · Grade 10

Date Meet Event Result Place Rating Difficulty PR/SR Flags
2017-05-15 CSAA JV Meet 1600m 5:43.17 13th · 4th on team 100.4 -0.023
2017-05-15 CSAA JV Meet 800m 2:34.37 15th · 4th on team 99.2 -0.023
2017-05-15 CSAA JV Meet 3200m 13:00.73 12th · 3rd on team 96.0 -0.023 SR
2017-05-02 CSAA Gold: Newaygo, Tri-County, Central Montcalm, Grant 1600m 5:46 20th · 8th on team 100.4 -0.023
2017-05-02 CSAA Gold: Newaygo, Tri-County, Central Montcalm, Grant 800m 2:31.3 19th · 9th on team 102.1 -0.023 RSR
2017-04-25 CSAA Gold: Tri-County, Fremont, Newaygo, Reed City 800m 2:31 15th · 6th on team 101.9 -0.017 PR SR RSR
2017-04-25 CSAA Gold: Tri-County, Fremont, Newaygo, Reed City 1600m 5:42 16th · 7th on team 101.3 -0.017 ★PR SR
2017-04-18 CSAA Gold Division: Newaygo, Tri-County, Chippewa Hills, Big Rapids 400m 1:04.64 19th · 9th on team -0.023 SR
2017-04-18 CSAA Gold Division: Newaygo, Tri-County, Chippewa Hills, Big Rapids 800m 2:45.6 18th · 7th on team 92.1 -0.023
2017-04-18 CSAA Gold Division: Newaygo, Tri-County, Chippewa Hills, Big Rapids 1600m 5:52.4 23rd · 8th on team 97.5 -0.023 PR SR RSR
2017-03-22 GVSU Laker Challenge D- I 800m 2:35.39 96th · 3rd on team 96.8 -0.040 PR SR RSR

2016 TF 96.1

Tri County (MI) · Grade 9

Date Meet Event Result Place Rating Difficulty PR/SR Flags
2016-05-10 CSAA Gold Tri County, Newaygo, Cent Mont 1600m 5:58.45 17th · 9th on team 97.6 -0.014 PR SR
2016-05-10 CSAA Gold Tri County, Newaygo, Cent Mont 800m 2:42.86 22nd · 10th on team 95.7 -0.014
2016-04-26 Newaygo, Reed City,Tri-County 400m 1:03.64 10th · 8th on team -0.023
2016-04-26 Newaygo, Reed City,Tri-County 800m 2:38.2 11th · 8th on team 96.7 -0.023
2016-04-19 CSAA Tri County, CH, New, BR 800m 2:35.6 17th · 7th on team 99.1 -0.017 PR SR RSR
2016-04-19 CSAA Tri County, CH, New, BR 400m 1:02.14 12th · 6th on team -0.017 PR SR
2016-03-29 Sparta Snow Melter 2400m 10:03.3 27th · 5th on team 90.2 -0.018 ★PR SR RSR
2016-03-29 Sparta Snow Melter 400m 1:03.82 24th · 7th on team -0.018 PR SR
2016-03-29 Sparta Snow Melter 800m 2:37.71 40th · 8th on team 97.1 -0.018 PR SR RSR

2015 TF 111.4

Tri County (MI) · Grade 8

Date Meet Event Result Place Rating Difficulty PR/SR Flags
2015-05-18 Chippewa Hills MS Invite 3200m 13:36 4th · 2nd on team 108.1 -0.025
2015-05-13 CSAA Chip Hills/Reed City/ TriCounty 3200m 12:42 2nd · 2nd on team 114.4 -0.025 ★PR ★R SR RSR
2015-05-06 Tri County with Hesperia and White Cloud 3200m 13:20 2nd · 2nd on team 110.0 -0.017
2015-04-29 CSAA BR/NEW/CM/TC 3200m 13:03.7 7th · 2nd on team 113.0 -0.010 PR R SR RSR